Location: Anmer
(52.8333°N, 0.5833°E)
Time: 04:54:45
(UTC+00:00)

SeaSat 1 - Pass Details

Date: 15 May 2026
Orbit: 736 x 739 km, 108.0° (Epoch: 6 June)

Event Time Altitude Azimuth Distance (km) Brightness Sun altitude
Exits shadow 22:42:55 - 100° (E) 2,961 5.3 -16.5°
Reaches altitude 10° 22:44:58 10° 88° (E) 2,253 4.8 -16.6°
Maximum altitude 22:48:47 24° 37° (NE) 1,528 4.5 -16.7°
Drops below altitude 10° 22:52:38 10° 345° (NNW) 2,261 6.3 -16.9°
Sets 22:55:16 0° 332° (NNW) 3,188 7.3 -17.0°
